Location: Carr Mill
(33.2054°N, 85.9439°W)
Time: 14:53:50
(UTC+00:00)

ISS - Pass Details

Date: 23 June 2021
Orbit: 419 x 421 km, 51.6° (Epoch: 02 August)

Event Time Altitude Azimuth Distance (km) Brightness Sun altitude
Exits shadow 09:56:11 - 205° (SSW) 1,698 -1.2 -7.8°
Reaches altitude 10° 09:56:44 10° 202° (SSW) 1,488 -1.5 -7.8°
Maximum altitude 09:59:52 39° 132° (SE) 640 -2.7 -7.2°
Drops below altitude 10° 10:03:02 10° 61° (ENE) 1,496 0.9 -6.7°
Sets 10:05:12 0° 54° (NE) 2,362 2.9 -6.3°
